Year,Month,Day,Hour,Minute,Value (Times are PST for windspeed in km/hr)
2013,09,29,00,00,5.10
2013,09,29,00,01,4.70
2013,09,29,00,02,3.30
2013,09,29,00,03,4.20
2013,09,29,00,04,4.00
2013,09,29,00,05,4.90
2013,09,29,00,06,3.10
2013,09,29,00,07,5.10
2013,09,29,00,08,4.50
2013,09,29,00,09,4.00
2013,09,29,00,10,2.60
2013,09,29,00,11,1.40
2013,09,29,00,12,1.90
2013,09,29,00,13,4.50
2013,09,29,00,14,3.00
2013,09,29,00,15,4.70
2013,09,29,00,16,5.10
2013,09,29,00,17,4.40
2013,09,29,00,18,4.80
2013,09,29,00,19,5.10
2013,09,29,00,20,4.30
2013,09,29,00,21,3.30
2013,09,29,00,22,4.20
2013,09,29,00,23,2.30
2013,09,29,00,24,1.80
2013,09,29,00,25,1.80
2013,09,29,00,26,5.90
2013,09,29,00,27,3.40
2013,09,29,00,28,3.10
2013,09,29,00,29,1.60
2013,09,29,00,30,2.70
2013,09,29,00,31,3.30
2013,09,29,00,32,2.90
2013,09,29,00,33,3.50
2013,09,29,00,34,3.50
2013,09,29,00,35,4.70
2013,09,29,00,36,4.50
2013,09,29,00,37,5.70
2013,09,29,00,38,6.30
2013,09,29,00,39,5.40
2013,09,29,00,40,6.50
2013,09,29,00,41,6.40
2013,09,29,00,42,6.90
2013,09,29,00,43,6.20
2013,09,29,00,44,6.80
2013,09,29,00,45,4.30
2013,09,29,00,46,4.70
2013,09,29,00,47,4.30
2013,09,29,00,48,3.30
2013,09,29,00,49,4.40
2013,09,29,00,50,4.60
2013,09,29,00,51,4.70
2013,09,29,00,52,4.70
2013,09,29,00,53,5.30
2013,09,29,00,54,3.00
2013,09,29,00,55,1.20
2013,09,29,00,56,3.10
2013,09,29,00,57,4.20
2013,09,29,00,58,2.80
2013,09,29,00,59,1.90
2013,09,29,01,00,1.40
2013,09,29,01,01,1.50
2013,09,29,01,02,0.70
2013,09,29,01,03,0.20
2013,09,29,01,04,0.00
2013,09,29,01,05,1.60
2013,09,29,01,06,0.60
2013,09,29,01,07,0.20
2013,09,29,01,08,1.90
2013,09,29,01,09,3.40
2013,09,29,01,10,3.90
2013,09,29,01,11,5.10
2013,09,29,01,12,5.50
2013,09,29,01,13,4.50
2013,09,29,01,14,4.60
2013,09,29,01,15,4.60
2013,09,29,01,16,2.90
2013,09,29,01,17,3.90
2013,09,29,01,18,3.70
2013,09,29,01,19,5.70
2013,09,29,01,20,5.10
2013,09,29,01,21,6.90
2013,09,29,01,22,8.90
2013,09,29,01,23,8.90
2013,09,29,01,24,5.60
2013,09,29,01,25,4.00
2013,09,29,01,26,3.40
2013,09,29,01,27,4.50
2013,09,29,01,28,5.80
2013,09,29,01,29,7.00
2013,09,29,01,30,6.60
2013,09,29,01,31,10.30
2013,09,29,01,32,7.30
2013,09,29,01,33,7.70
2013,09,29,01,34,9.10
2013,09,29,01,35,9.90
2013,09,29,01,36,7.40
2013,09,29,01,37,3.50
2013,09,29,01,38,2.40
2013,09,29,01,39,2.80
2013,09,29,01,40,1.70
2013,09,29,01,41,1.40
2013,09,29,01,42,5.60
2013,09,29,01,43,5.10
2013,09,29,01,44,5.10
2013,09,29,01,45,5.20
2013,09,29,01,46,6.90
2013,09,29,01,47,7.10
2013,09,29,01,48,7.60
2013,09,29,01,49,5.60
2013,09,29,01,50,6.00
2013,09,29,01,51,7.20
2013,09,29,01,52,7.90
2013,09,29,01,53,6.70
2013,09,29,01,54,6.80
2013,09,29,01,55,8.60
2013,09,29,01,56,5.90
2013,09,29,01,57,3.20
2013,09,29,01,58,0.80
2013,09,29,01,59,0.60
2013,09,29,02,00,1.70
2013,09,29,02,01,0.80
2013,09,29,02,02,2.70
2013,09,29,02,03,1.60
2013,09,29,02,04,1.40
2013,09,29,02,05,3.20
2013,09,29,02,06,2.80
2013,09,29,02,07,1.70
2013,09,29,02,08,0.50
2013,09,29,02,09,0.50
2013,09,29,02,10,2.10
2013,09,29,02,11,1.40
2013,09,29,02,12,2.10
2013,09,29,02,13,1.30
2013,09,29,02,14,0.90
2013,09,29,02,15,1.70
2013,09,29,02,16,1.00
2013,09,29,02,17,1.30
2013,09,29,02,18,1.50
2013,09,29,02,19,1.70
2013,09,29,02,20,3.60
2013,09,29,02,21,2.40
2013,09,29,02,22,1.70
2013,09,29,02,23,1.10
2013,09,29,02,24,2.30
2013,09,29,02,25,3.00
2013,09,29,02,26,2.80
2013,09,29,02,27,1.20
2013,09,29,02,28,1.00
2013,09,29,02,29,1.50
2013,09,29,02,30,3.80
2013,09,29,02,31,2.00
2013,09,29,02,32,1.40
2013,09,29,02,33,1.80
2013,09,29,02,34,2.70
2013,09,29,02,35,2.80
2013,09,29,02,36,1.70
2013,09,29,02,37,0.60
2013,09,29,02,38,2.40
2013,09,29,02,39,2.50
2013,09,29,02,40,2.30
2013,09,29,02,41,2.10
2013,09,29,02,42,1.10
2013,09,29,02,43,3.00
2013,09,29,02,44,4.00
2013,09,29,02,45,3.20
2013,09,29,02,46,3.50
2013,09,29,02,47,4.90
2013,09,29,02,48,4.40
2013,09,29,02,49,4.00
2013,09,29,02,50,3.60
2013,09,29,02,51,3.70
2013,09,29,02,52,4.70
2013,09,29,02,53,3.40
2013,09,29,02,54,4.60
2013,09,29,02,55,5.10
2013,09,29,02,56,5.30
2013,09,29,02,57,6.40
2013,09,29,02,58,6.10
2013,09,29,02,59,5.60
2013,09,29,03,00,5.40
2013,09,29,03,01,4.20
2013,09,29,03,02,6.00
2013,09,29,03,03,5.60
2013,09,29,03,04,6.70
2013,09,29,03,05,5.20
2013,09,29,03,06,4.80
2013,09,29,03,07,5.60
2013,09,29,03,08,6.40
2013,09,29,03,09,7.50
2013,09,29,03,10,6.80
2013,09,29,03,11,7.30
2013,09,29,03,12,6.40
2013,09,29,03,13,5.20
2013,09,29,03,14,6.40
2013,09,29,03,15,7.60
2013,09,29,03,16,9.70
2013,09,29,03,17,8.10
2013,09,29,03,18,7.70
2013,09,29,03,19,5.60
2013,09,29,03,20,5.40
2013,09,29,03,21,5.80
2013,09,29,03,22,5.50
2013,09,29,03,23,5.40
2013,09,29,03,24,4.70
2013,09,29,03,25,6.60
2013,09,29,03,26,3.90
2013,09,29,03,27,4.60
2013,09,29,03,28,6.60
2013,09,29,03,29,10.50
2013,09,29,03,30,7.30
2013,09,29,03,31,6.20
2013,09,29,03,32,4.30
2013,09,29,03,33,5.00
2013,09,29,03,34,3.80
2013,09,29,03,35,6.40
2013,09,29,03,36,6.50
2013,09,29,03,37,5.40
2013,09,29,03,38,5.00
2013,09,29,03,39,2.50
2013,09,29,03,40,6.00
2013,09,29,03,41,5.60
2013,09,29,03,42,5.00
2013,09,29,03,43,6.20
2013,09,29,03,44,3.50
2013,09,29,03,45,6.00
2013,09,29,03,46,5.60
2013,09,29,03,47,5.60
2013,09,29,03,48,6.30
2013,09,29,03,49,6.10
2013,09,29,03,50,5.80
2013,09,29,03,51,5.10
2013,09,29,03,52,3.90
2013,09,29,03,53,3.70
2013,09,29,03,54,3.50
2013,09,29,03,55,3.70
2013,09,29,03,56,5.00
2013,09,29,03,57,4.10
2013,09,29,03,58,3.80
2013,09,29,03,59,3.20
2013,09,29,04,00,1.90
2013,09,29,04,01,2.50
2013,09,29,04,02,1.90
2013,09,29,04,03,1.10
2013,09,29,04,04,0.40
2013,09,29,04,05,0.60
2013,09,29,04,06,0.20
2013,09,29,04,07,0.00
2013,09,29,04,08,0.00
2013,09,29,04,09,0.00
2013,09,29,04,10,0.00
2013,09,29,04,11,1.30
2013,09,29,04,12,2.00
2013,09,29,04,13,1.00
2013,09,29,04,14,0.00
2013,09,29,04,15,0.00
2013,09,29,04,16,1.00
2013,09,29,04,17,0.20
2013,09,29,04,18,1.20
2013,09,29,04,19,1.50
2013,09,29,04,20,0.90
2013,09,29,04,21,2.40
2013,09,29,04,22,1.30
2013,09,29,04,23,3.40
2013,09,29,04,24,3.40
2013,09,29,04,25,2.80
2013,09,29,04,26,2.70
2013,09,29,04,27,1.10
2013,09,29,04,28,1.50
2013,09,29,04,29,0.90
2013,09,29,04,30,2.20
2013,09,29,04,31,2.50
2013,09,29,04,32,2.20
2013,09,29,04,33,2.60
2013,09,29,04,34,3.40
2013,09,29,04,35,2.00
2013,09,29,04,36,1.90
2013,09,29,04,37,1.30
2013,09,29,04,38,0.10
2013,09,29,04,39,1.00
2013,09,29,04,40,1.90
2013,09,29,04,41,2.70
2013,09,29,04,42,3.60
2013,09,29,04,43,4.80
2013,09,29,04,44,5.60
2013,09,29,04,45,4.10
2013,09,29,04,46,6.40
2013,09,29,04,47,4.50
2013,09,29,04,48,5.10
2013,09,29,04,49,4.20
2013,09,29,04,50,2.70
2013,09,29,04,51,2.30
2013,09,29,04,52,2.40
2013,09,29,04,53,1.80
2013,09,29,04,54,4.90
2013,09,29,04,55,4.50
2013,09,29,04,56,4.40
2013,09,29,04,57,3.60
2013,09,29,04,58,4.60
2013,09,29,04,59,2.20
2013,09,29,05,00,3.90
2013,09,29,05,01,3.60
2013,09,29,05,02,1.60
2013,09,29,05,03,2.10
2013,09,29,05,04,4.60
2013,09,29,05,05,3.40
2013,09,29,05,06,1.80
2013,09,29,05,07,4.00
2013,09,29,05,08,5.30
2013,09,29,05,09,4.40
2013,09,29,05,10,5.00
2013,09,29,05,11,4.50
2013,09,29,05,12,5.20
2013,09,29,05,13,3.10
2013,09,29,05,14,1.90
2013,09,29,05,15,3.50
2013,09,29,05,16,1.90
2013,09,29,05,17,3.70
2013,09,29,05,18,2.90
2013,09,29,05,19,3.50
2013,09,29,05,20,2.30
2013,09,29,05,21,4.60
2013,09,29,05,22,3.10
2013,09,29,05,23,3.90
2013,09,29,05,24,3.60
2013,09,29,05,25,1.70
2013,09,29,05,26,4.00
2013,09,29,05,27,2.70
2013,09,29,05,28,2.60
2013,09,29,05,29,2.30
2013,09,29,05,30,4.00
2013,09,29,05,31,3.50
2013,09,29,05,32,3.20
2013,09,29,05,33,1.50
2013,09,29,05,34,2.30
2013,09,29,05,35,2.00
2013,09,29,05,36,2.30
2013,09,29,05,37,1.90
2013,09,29,05,38,2.70
2013,09,29,05,39,3.60
2013,09,29,05,40,3.40
2013,09,29,05,41,1.90
2013,09,29,05,42,1.20
2013,09,29,05,43,2.30
2013,09,29,05,44,4.00
2013,09,29,05,45,2.80
2013,09,29,05,46,3.50
2013,09,29,05,47,4.30
2013,09,29,05,48,5.80
2013,09,29,05,49,4.80
2013,09,29,05,50,2.40
2013,09,29,05,51,1.10
2013,09,29,05,52,1.90
2013,09,29,05,53,3.20
2013,09,29,05,54,3.40
2013,09,29,05,55,3.50
2013,09,29,05,56,3.00
2013,09,29,05,57,3.70
2013,09,29,05,58,4.00
2013,09,29,05,59,3.40
2013,09,29,06,00,4.10
2013,09,29,06,01,2.40
2013,09,29,06,02,4.00
2013,09,29,06,03,3.60
2013,09,29,06,04,3.30
2013,09,29,06,05,4.50
2013,09,29,06,06,6.00
2013,09,29,06,07,8.60
2013,09,29,06,08,7.00
2013,09,29,06,09,8.80
2013,09,29,06,10,7.80
2013,09,29,06,11,10.70
2013,09,29,06,12,10.90
2013,09,29,06,13,9.70
2013,09,29,06,14,7.70
2013,09,29,06,15,8.50
2013,09,29,06,16,5.70
2013,09,29,06,17,7.60
2013,09,29,06,18,7.00
2013,09,29,06,19,9.70
2013,09,29,06,20,6.30
2013,09,29,06,21,8.10
2013,09,29,06,22,5.40
2013,09,29,06,23,2.90
2013,09,29,06,24,2.50
2013,09,29,06,25,3.10
2013,09,29,06,26,7.70
2013,09,29,06,27,5.10
2013,09,29,06,28,5.70
2013,09,29,06,29,4.40
2013,09,29,06,30,4.70
2013,09,29,06,31,5.20
2013,09,29,06,32,6.00
2013,09,29,06,33,6.30
2013,09,29,06,34,6.00
2013,09,29,06,35,8.40
2013,09,29,06,36,6.00
2013,09,29,06,37,7.90
2013,09,29,06,38,6.10
2013,09,29,06,39,4.50
2013,09,29,06,40,6.90
2013,09,29,06,41,6.80
2013,09,29,06,42,5.90
2013,09,29,06,43,5.60
2013,09,29,06,44,7.00
2013,09,29,06,45,6.10
2013,09,29,06,46,7.40
2013,09,29,06,47,7.70
2013,09,29,06,48,8.20
2013,09,29,06,49,8.00
2013,09,29,06,50,8.10
2013,09,29,06,51,9.30
2013,09,29,06,52,8.40
2013,09,29,06,53,8.60
2013,09,29,06,54,7.20
2013,09,29,06,55,7.50
2013,09,29,06,56,10.60
2013,09,29,06,57,10.70
2013,09,29,06,58,9.80
2013,09,29,06,59,12.00
2013,09,29,07,00,10.10
2013,09,29,07,01,12.90
2013,09,29,07,02,12.00
2013,09,29,07,03,10.30
2013,09,29,07,04,6.00
2013,09,29,07,05,6.00
2013,09,29,07,06,6.10
2013,09,29,07,07,6.80
2013,09,29,07,08,5.40
2013,09,29,07,09,7.80
2013,09,29,07,10,8.40
2013,09,29,07,11,7.50
2013,09,29,07,12,7.30
2013,09,29,07,13,6.50
2013,09,29,07,14,3.90
2013,09,29,07,15,5.70
2013,09,29,07,16,6.40
2013,09,29,07,17,6.90
2013,09,29,07,18,5.80
2013,09,29,07,19,7.80
2013,09,29,07,20,5.60
2013,09,29,07,21,5.70
2013,09,29,07,22,6.00
2013,09,29,07,23,6.10
2013,09,29,07,24,8.60
2013,09,29,07,25,7.90
2013,09,29,07,26,4.80
2013,09,29,07,27,5.70
2013,09,29,07,28,5.40
2013,09,29,07,29,7.20
2013,09,29,07,30,7.70
2013,09,29,07,31,5.90
2013,09,29,07,32,5.90
2013,09,29,07,33,7.40
2013,09,29,07,34,6.10
2013,09,29,07,35,6.40
2013,09,29,07,36,5.10
2013,09,29,07,37,6.60
2013,09,29,07,38,5.80
2013,09,29,07,39,4.30
2013,09,29,07,40,3.70
2013,09,29,07,41,4.30
2013,09,29,07,42,5.10
2013,09,29,07,43,3.90
2013,09,29,07,44,6.30
2013,09,29,07,45,4.10
2013,09,29,07,46,3.60
2013,09,29,07,47,5.60
2013,09,29,07,48,6.00
2013,09,29,07,49,5.70
2013,09,29,07,50,6.40
2013,09,29,07,51,4.70
2013,09,29,07,52,5.10
2013,09,29,07,53,6.30
2013,09,29,07,54,7.10
2013,09,29,07,55,5.40
2013,09,29,07,56,4.10
2013,09,29,07,57,4.00
2013,09,29,07,58,6.60
2013,09,29,07,59,5.80
2013,09,29,08,00,5.40
2013,09,29,08,01,6.40
2013,09,29,08,02,8.40
2013,09,29,08,03,6.80
2013,09,29,08,04,6.60
2013,09,29,08,05,6.30
2013,09,29,08,06,4.00
2013,09,29,08,07,5.60
2013,09,29,08,08,3.80
2013,09,29,08,09,0.80
2013,09,29,08,10,3.90
2013,09,29,08,11,5.90
2013,09,29,08,12,6.40
2013,09,29,08,13,6.40
2013,09,29,08,14,5.10
2013,09,29,08,15,7.70
2013,09,29,08,16,4.80
2013,09,29,08,17,5.60
2013,09,29,08,18,5.60
2013,09,29,08,19,5.10
2013,09,29,08,20,3.50
2013,09,29,08,21,3.40
2013,09,29,08,22,4.80
2013,09,29,08,23,5.50
2013,09,29,08,24,4.80
2013,09,29,08,25,6.00
2013,09,29,08,26,6.80
2013,09,29,08,27,6.40
2013,09,29,08,28,5.50
2013,09,29,08,29,6.00
2013,09,29,08,30,6.20
2013,09,29,08,31,6.00
2013,09,29,08,32,6.40
2013,09,29,08,33,6.60
2013,09,29,08,34,8.10
2013,09,29,08,35,6.30
2013,09,29,08,36,8.80
2013,09,29,08,37,5.50
2013,09,29,08,38,6.80
2013,09,29,08,39,6.00
2013,09,29,08,40,6.10
2013,09,29,08,41,5.60
2013,09,29,08,42,3.50
2013,09,29,08,43,2.80
2013,09,29,08,44,2.10
2013,09,29,08,45,3.90
2013,09,29,08,46,4.40
2013,09,29,08,47,2.90
2013,09,29,08,48,3.40
2013,09,29,08,49,3.00
2013,09,29,08,50,3.10
2013,09,29,08,51,6.80
2013,09,29,08,52,6.50
2013,09,29,08,53,5.60
2013,09,29,08,54,6.20
2013,09,29,08,55,7.40
2013,09,29,08,56,5.80
2013,09,29,08,57,7.80
2013,09,29,08,58,6.30
2013,09,29,08,59,6.80
2013,09,29,09,00,5.50
2013,09,29,09,01,8.10
2013,09,29,09,02,6.60
2013,09,29,09,03,6.10
2013,09,29,09,04,7.80
2013,09,29,09,05,4.50
2013,09,29,09,06,7.60
2013,09,29,09,07,6.20
2013,09,29,09,08,4.30
2013,09,29,09,09,5.20
2013,09,29,09,10,4.10
2013,09,29,09,11,6.50
2013,09,29,09,12,7.20
2013,09,29,09,13,4.60
2013,09,29,09,14,5.10
2013,09,29,09,15,4.00
2013,09,29,09,16,2.90
2013,09,29,09,17,3.90
2013,09,29,09,18,4.60
2013,09,29,09,19,3.70
2013,09,29,09,20,3.60
2013,09,29,09,21,3.30
2013,09,29,09,22,2.00
2013,09,29,09,23,3.00
2013,09,29,09,24,2.80
2013,09,29,09,25,3.50
2013,09,29,09,26,1.10
2013,09,29,09,27,3.00
2013,09,29,09,28,4.40
2013,09,29,09,29,1.10
2013,09,29,09,30,3.80
2013,09,29,09,31,1.30
2013,09,29,09,32,3.60
2013,09,29,09,33,6.70
2013,09,29,09,34,4.60
2013,09,29,09,35,4.70
2013,09,29,09,36,3.70
2013,09,29,09,37,4.00
2013,09,29,09,38,3.70
2013,09,29,09,39,1.20
2013,09,29,09,40,1.10
2013,09,29,09,41,0.50
2013,09,29,09,42,0.90
2013,09,29,09,43,3.20
2013,09,29,09,44,2.60
2013,09,29,09,45,1.30
2013,09,29,09,46,2.20
2013,09,29,09,47,5.00
2013,09,29,09,48,4.70
2013,09,29,09,49,3.40
2013,09,29,09,50,1.80
2013,09,29,09,51,1.20
2013,09,29,09,52,0.30
2013,09,29,09,53,0.50
2013,09,29,09,54,1.90
2013,09,29,09,55,2.20
2013,09,29,09,56,2.60
2013,09,29,09,57,1.50
2013,09,29,09,58,0.90
2013,09,29,09,59,1.30
2013,09,29,10,00,2.30
2013,09,29,10,01,2.60
2013,09,29,10,02,1.80
2013,09,29,10,03,1.50
2013,09,29,10,04,0.00
2013,09,29,10,05,0.90
2013,09,29,10,06,3.10
2013,09,29,10,07,3.40
2013,09,29,10,08,3.20
2013,09,29,10,09,3.30
2013,09,29,10,10,3.90
2013,09,29,10,11,2.80
2013,09,29,10,12,3.10
2013,09,29,10,13,0.90
2013,09,29,10,14,3.30
2013,09,29,10,15,4.20
2013,09,29,10,16,3.10
2013,09,29,10,17,4.10
2013,09,29,10,18,4.30
2013,09,29,10,19,3.10
2013,09,29,10,20,2.30
2013,09,29,10,21,2.00
2013,09,29,10,22,4.20
2013,09,29,10,23,3.30
2013,09,29,10,24,3.40
2013,09,29,10,25,3.80
2013,09,29,10,26,3.70
2013,09,29,10,27,1.90
2013,09,29,10,28,6.00
2013,09,29,10,29,5.40
2013,09,29,10,30,3.40
2013,09,29,10,31,3.60
2013,09,29,10,32,4.50
2013,09,29,10,33,2.90
2013,09,29,10,34,3.60
2013,09,29,10,35,3.10
2013,09,29,10,36,3.80
2013,09,29,10,37,3.60
2013,09,29,10,38,3.00
2013,09,29,10,39,2.90
2013,09,29,10,40,3.20
2013,09,29,10,41,5.40
2013,09,29,10,42,6.80
2013,09,29,10,43,4.60
2013,09,29,10,44,6.80
2013,09,29,10,45,5.70
2013,09,29,10,46,4.60
2013,09,29,10,47,4.10
2013,09,29,10,48,7.30
2013,09,29,10,49,4.40
2013,09,29,10,50,6.80
2013,09,29,10,51,7.70
2013,09,29,10,52,5.20
2013,09,29,10,53,3.00
2013,09,29,10,54,3.90
2013,09,29,10,55,3.40
2013,09,29,10,56,3.60
2013,09,29,10,57,3.70
2013,09,29,10,58,4.70
2013,09,29,10,59,3.60
2013,09,29,11,00,4.50
2013,09,29,11,01,8.50
2013,09,29,11,02,7.60
2013,09,29,11,03,5.20
2013,09,29,11,04,6.10
2013,09,29,11,05,4.50
2013,09,29,11,06,4.50
2013,09,29,11,07,1.70
2013,09,29,11,08,0.60
2013,09,29,11,09,4.60
2013,09,29,11,10,3.70
2013,09,29,11,11,3.50
2013,09,29,11,12,2.80
2013,09,29,11,13,4.70
2013,09,29,11,14,4.00
2013,09,29,11,15,4.90
2013,09,29,11,16,3.20
2013,09,29,11,17,5.60
2013,09,29,11,18,5.20
2013,09,29,11,19,5.10
2013,09,29,11,20,6.80
2013,09,29,11,21,6.10
2013,09,29,11,22,3.90
2013,09,29,11,23,5.10
2013,09,29,11,24,5.30
2013,09,29,11,25,3.60
2013,09,29,11,26,3.10
2013,09,29,11,27,2.70
2013,09,29,11,28,2.60
2013,09,29,11,29,1.20
2013,09,29,11,30,1.80
2013,09,29,11,31,5.00
2013,09,29,11,32,3.60
2013,09,29,11,33,5.00
2013,09,29,11,34,4.50
2013,09,29,11,35,5.30
2013,09,29,11,36,4.70
2013,09,29,11,37,1.90
2013,09,29,11,38,0.90
2013,09,29,11,39,1.40
2013,09,29,11,40,1.90
2013,09,29,11,41,2.50
2013,09,29,11,42,3.70
2013,09,29,11,43,3.50
2013,09,29,11,44,4.00
2013,09,29,11,45,4.30
2013,09,29,11,46,6.00
2013,09,29,11,47,4.30
2013,09,29,11,48,4.30
2013,09,29,11,49,0.40
2013,09,29,11,50,0.70
2013,09,29,11,51,1.10
2013,09,29,11,52,0.70
2013,09,29,11,53,1.50
2013,09,29,11,54,1.90
2013,09,29,11,55,0.20
2013,09,29,11,56,0.50
2013,09,29,11,57,0.70
2013,09,29,11,58,3.90
2013,09,29,11,59,4.60
2013,09,29,12,00,8.40
2013,09,29,12,01,7.60
2013,09,29,12,02,4.00
2013,09,29,12,03,3.90
2013,09,29,12,04,2.20
2013,09,29,12,05,1.90
2013,09,29,12,06,2.00
2013,09,29,12,07,1.90
2013,09,29,12,08,1.20
2013,09,29,12,09,1.10
2013,09,29,12,10,1.90
2013,09,29,12,11,2.40
2013,09,29,12,12,0.70
2013,09,29,12,13,2.50
2013,09,29,12,14,5.40
2013,09,29,12,15,5.00
2013,09,29,12,16,5.60
2013,09,29,12,17,4.00
2013,09,29,12,18,3.90
2013,09,29,12,19,4.50
2013,09,29,12,20,5.00
2013,09,29,12,21,4.60
2013,09,29,12,22,4.20
2013,09,29,12,23,3.50
2013,09,29,12,24,2.30
2013,09,29,12,25,2.90
2013,09,29,12,26,3.70
2013,09,29,12,27,3.40
2013,09,29,12,28,2.60
2013,09,29,12,29,2.70
2013,09,29,12,30,2.60
2013,09,29,12,31,4.10
2013,09,29,12,32,4.50
2013,09,29,12,33,5.50
2013,09,29,12,34,5.00
2013,09,29,12,35,3.90
2013,09,29,12,36,4.10
2013,09,29,12,37,4.70
2013,09,29,12,38,4.20
2013,09,29,12,39,2.90
2013,09,29,12,40,3.00
2013,09,29,12,41,5.30
2013,09,29,12,42,4.80
2013,09,29,12,43,4.40
2013,09,29,12,44,4.70
2013,09,29,12,45,5.00
2013,09,29,12,46,3.90
2013,09,29,12,47,4.30
2013,09,29,12,48,4.10
2013,09,29,12,49,5.80
2013,09,29,12,50,5.80
2013,09,29,12,51,5.60
2013,09,29,12,52,5.10
2013,09,29,12,53,5.70
2013,09,29,12,54,4.90
2013,09,29,12,55,4.70
2013,09,29,12,56,4.00
2013,09,29,12,57,5.10
2013,09,29,12,58,4.40
2013,09,29,12,59,2.40
2013,09,29,13,00,3.90
2013,09,29,13,01,3.90
2013,09,29,13,02,3.10
2013,09,29,13,03,3.50
2013,09,29,13,04,3.10
2013,09,29,13,05,1.50
2013,09,29,13,06,0.80
2013,09,29,13,07,2.50
2013,09,29,13,08,1.50
2013,09,29,13,09,2.30
2013,09,29,13,10,4.00
2013,09,29,13,11,5.10
2013,09,29,13,12,3.90
2013,09,29,13,13,3.00
2013,09,29,13,14,3.10
2013,09,29,13,15,3.70
2013,09,29,13,16,2.90
2013,09,29,13,17,3.40
2013,09,29,13,18,4.10
2013,09,29,13,19,3.50
2013,09,29,13,20,5.10
2013,09,29,13,21,4.70
2013,09,29,13,22,3.10
2013,09,29,13,23,2.10
2013,09,29,13,24,5.50
2013,09,29,13,25,5.40
2013,09,29,13,26,5.40
2013,09,29,13,27,3.60
2013,09,29,13,28,5.30
2013,09,29,13,29,5.30
2013,09,29,13,30,4.00
2013,09,29,13,31,2.30
2013,09,29,13,32,3.10
2013,09,29,13,33,3.80
2013,09,29,13,34,2.70
2013,09,29,13,35,3.50
2013,09,29,13,36,4.00
2013,09,29,13,37,4.10
2013,09,29,13,38,3.10
2013,09,29,13,39,3.50
2013,09,29,13,40,3.60
2013,09,29,13,41,2.50
2013,09,29,13,42,2.70
2013,09,29,13,43,4.30
2013,09,29,13,44,1.70
2013,09,29,13,45,0.90
2013,09,29,13,46,2.00
2013,09,29,13,47,3.00
2013,09,29,13,48,2.60
2013,09,29,13,49,0.90
2013,09,29,13,50,1.50
2013,09,29,13,51,2.30
2013,09,29,13,52,2.70
2013,09,29,13,53,2.50
2013,09,29,13,54,2.20
2013,09,29,13,55,3.40
2013,09,29,13,56,2.50
2013,09,29,13,57,4.00
2013,09,29,13,58,2.30
2013,09,29,13,59,2.10
2013,09,29,14,00,2.80
2013,09,29,14,01,2.80
2013,09,29,14,02,5.30
2013,09,29,14,03,3.00
2013,09,29,14,04,1.80
2013,09,29,14,05,1.60
2013,09,29,14,06,5.60
2013,09,29,14,07,5.70
2013,09,29,14,08,7.10
2013,09,29,14,09,6.60
2013,09,29,14,10,4.80
2013,09,29,14,11,1.90
2013,09,29,14,12,4.00
2013,09,29,14,13,7.50
2013,09,29,14,14,4.80
2013,09,29,14,15,4.70
2013,09,29,14,16,4.80
2013,09,29,14,17,3.10
2013,09,29,14,18,4.30
2013,09,29,14,19,4.50
2013,09,29,14,20,3.60
2013,09,29,14,21,5.60
2013,09,29,14,22,6.60
2013,09,29,14,23,3.50
2013,09,29,14,24,2.00
2013,09,29,14,25,1.50
2013,09,29,14,26,2.00
2013,09,29,14,27,3.90
2013,09,29,14,28,3.00
2013,09,29,14,29,4.40
2013,09,29,14,30,3.40
2013,09,29,14,31,2.30
2013,09,29,14,32,1.90
2013,09,29,14,33,1.50
2013,09,29,14,34,3.10
2013,09,29,14,35,3.00
2013,09,29,14,36,4.30
2013,09,29,14,37,3.40
2013,09,29,14,38,4.40
2013,09,29,14,39,5.80
2013,09,29,14,40,4.20
2013,09,29,14,41,2.90
2013,09,29,14,42,2.70
2013,09,29,14,43,2.80
2013,09,29,14,44,6.20
2013,09,29,14,45,6.10
2013,09,29,14,46,3.60
2013,09,29,14,47,3.50
2013,09,29,14,48,2.00
2013,09,29,14,49,3.80
2013,09,29,14,50,2.60
2013,09,29,14,51,5.00
2013,09,29,14,52,6.00
2013,09,29,14,53,4.70
2013,09,29,14,54,2.60
2013,09,29,14,55,3.10
2013,09,29,14,56,4.80
2013,09,29,14,57,4.30
2013,09,29,14,58,4.60
2013,09,29,14,59,4.20
2013,09,29,15,00,3.90
2013,09,29,15,01,3.40
2013,09,29,15,02,3.70
2013,09,29,15,03,3.50
2013,09,29,15,04,4.30
2013,09,29,15,05,3.10
2013,09,29,15,06,5.50
2013,09,29,15,07,4.30
2013,09,29,15,08,3.30
2013,09,29,15,09,2.20
2013,09,29,15,10,3.00
2013,09,29,15,11,2.40
2013,09,29,15,12,1.20
2013,09,29,15,13,0.90
2013,09,29,15,14,1.20
2013,09,29,15,15,2.50
2013,09,29,15,16,3.90
2013,09,29,15,17,4.20
2013,09,29,15,18,5.60
2013,09,29,15,19,4.60
2013,09,29,15,20,3.90
2013,09,29,15,21,3.10
2013,09,29,15,22,3.70
2013,09,29,15,23,6.50
2013,09,29,15,24,5.60
2013,09,29,15,25,5.60
2013,09,29,15,26,2.80
2013,09,29,15,27,3.40
2013,09,29,15,28,5.20
2013,09,29,15,29,6.70
2013,09,29,15,30,6.70
2013,09,29,15,31,5.30
2013,09,29,15,32,6.80
2013,09,29,15,33,5.80
2013,09,29,15,34,6.20
2013,09,29,15,35,7.50
2013,09,29,15,36,8.50
2013,09,29,15,37,6.40
2013,09,29,15,38,6.30
2013,09,29,15,39,6.90
2013,09,29,15,40,6.80
2013,09,29,15,41,6.60
2013,09,29,15,42,5.60
2013,09,29,15,43,5.70
2013,09,29,15,44,6.80
2013,09,29,15,45,9.00
2013,09,29,15,46,13.90
2013,09,29,15,47,9.40
2013,09,29,15,48,9.00
2013,09,29,15,49,7.60
2013,09,29,15,50,8.20
2013,09,29,15,51,15.10
2013,09,29,15,52,12.80
2013,09,29,15,53,6.40
2013,09,29,15,54,11.40
2013,09,29,15,55,12.40
2013,09,29,15,56,11.20
2013,09,29,15,57,14.90
2013,09,29,15,58,16.30
2013,09,29,15,59,11.30
2013,09,29,16,00,10.90
2013,09,29,16,01,14.90
2013,09,29,16,02,9.00
2013,09,29,16,03,14.70
2013,09,29,16,04,16.30
2013,09,29,16,05,14.70
2013,09,29,16,06,16.00
2013,09,29,16,07,15.80
2013,09,29,16,08,8.00
2013,09,29,16,09,17.60
2013,09,29,16,10,22.90
2013,09,29,16,11,17.40
2013,09,29,16,12,19.80
2013,09,29,16,13,18.30
2013,09,29,16,14,20.00
2013,09,29,16,15,17.20
2013,09,29,16,16,19.90
2013,09,29,16,17,19.80
2013,09,29,16,18,21.10
2013,09,29,16,19,23.60
2013,09,29,16,20,23.40
2013,09,29,16,21,21.20
2013,09,29,16,22,18.90
2013,09,29,16,23,19.00
2013,09,29,16,24,21.70
2013,09,29,16,25,18.40
2013,09,29,16,26,24.00
2013,09,29,16,27,23.90
2013,09,29,16,28,20.50
2013,09,29,16,29,23.80
2013,09,29,16,30,22.90
2013,09,29,16,31,21.50
2013,09,29,16,32,22.90
2013,09,29,16,33,20.00
2013,09,29,16,34,22.10
2013,09,29,16,35,24.60
2013,09,29,16,36,20.80
2013,09,29,16,37,21.20
2013,09,29,16,38,17.90
2013,09,29,16,39,25.10
2013,09,29,16,40,21.90
2013,09,29,16,41,20.00
2013,09,29,16,42,20.40
2013,09,29,16,43,24.00
2013,09,29,16,44,29.30
2013,09,29,16,45,24.30
2013,09,29,16,46,25.40
2013,09,29,16,47,28.20
2013,09,29,16,48,22.90
2013,09,29,16,49,20.40
2013,09,29,16,50,27.40
2013,09,29,16,51,24.10
2013,09,29,16,52,24.50
2013,09,29,16,53,31.10
2013,09,29,16,54,23.50
2013,09,29,16,55,20.80
2013,09,29,16,56,27.20
2013,09,29,16,57,23.60
2013,09,29,16,58,17.60
2013,09,29,16,59,16.30
2013,09,29,17,00,25.60
2013,09,29,17,01,24.10
2013,09,29,17,02,21.50
2013,09,29,17,03,29.40
2013,09,29,17,04,20.20
2013,09,29,17,05,25.00
2013,09,29,17,06,18.50
2013,09,29,17,07,27.40
2013,09,29,17,08,20.60
2013,09,29,17,09,24.40
2013,09,29,17,10,15.80
2013,09,29,17,11,17.50
2013,09,29,17,12,18.00
2013,09,29,17,13,25.70
2013,09,29,17,14,21.20
2013,09,29,17,15,26.20
2013,09,29,17,16,20.40
2013,09,29,17,17,18.80
2013,09,29,17,18,31.90
2013,09,29,17,19,22.90
2013,09,29,17,20,16.70
2013,09,29,17,21,21.50
2013,09,29,17,22,21.40
2013,09,29,17,23,18.40
2013,09,29,17,24,17.20
2013,09,29,17,25,21.20
2013,09,29,17,26,19.60
2013,09,29,17,27,19.00
2013,09,29,17,28,18.60
2013,09,29,17,29,21.20
2013,09,29,17,30,19.10
2013,09,29,17,31,17.10
2013,09,29,17,32,23.20
2013,09,29,17,33,24.40
2013,09,29,17,34,34.60
2013,09,29,17,35,30.60
2013,09,29,17,36,25.50
2013,09,29,17,37,24.60
2013,09,29,17,38,20.90
2013,09,29,17,39,23.50
2013,09,29,17,40,25.50
2013,09,29,17,41,21.40
2013,09,29,17,42,23.30
2013,09,29,17,43,27.30
2013,09,29,17,44,24.50
2013,09,29,17,45,25.80
2013,09,29,17,46,29.90
2013,09,29,17,47,23.60
2013,09,29,17,48,24.40
2013,09,29,17,49,29.40
2013,09,29,17,50,25.20
2013,09,29,17,51,29.90
2013,09,29,17,52,24.90
2013,09,29,17,53,23.90
2013,09,29,17,54,22.10
2013,09,29,17,55,22.20
2013,09,29,17,56,21.60
2013,09,29,17,57,23.20
2013,09,29,17,58,18.10
2013,09,29,17,59,17.90
2013,09,29,18,00,24.10